Startseite
Über Mich
AHP4
Galerie
Sehschlangen
Tourenbuch
Bookmarks
Elektronik
Bewertung
Geschichten
[Tagesmessung] [Jahreswerte] [Information]

Messwerte vom 07.01.2022

Die letzten Messwerte von 23:58:46 Uhr:
KategorieMesswert
Temperatur [°C]1
Luftdruck [mBar]993
Sonneneinstrahlung0
Wind [km/h]5 aus West
Niederschlag [l/m²]0
rel.Luftfeucht.96.6%
CO2 [ppm]516

Diagramme
Messwerte vom 07.01.2022
Tagesaggregation
KategorieMinimumMaximumSchnittSumme
Temperatur [°C]-131.5646
Luftdruck [mBar]9931002995.9333
Sonneneinstrahlung21945.5688
Wind [km/h]16
rF [%]83.896.694.29
Niederschlag [l/m²]1.8025
CO2 [ppm]404796604.5
Einordnung alsFrosttag
Kalter Tag

Messungen an benachbarten Tagen: Zur Jahresaggregation 2022
Tabelle aller Messwerte
UhrzeitTemperatur [°C]Luftdruck [mBar]SonneWind [km/h]RichtungRegen [l/m²]rF [%]CO2 [ppm]
00:01:46 0 1002 0 7 S 0 94.3 513
00:04:49 1 1002 0 3 SW 0 94.4 513
00:07:47 1 1002 0 2 SO 0 94.3 510
00:10:49 1 1002 0 2 SW 0 93.9 519
00:13:48 0 1002 0 2 0 93.7 530
00:16:46 0 1002 0 2 S 0 93.9 529
00:19:48 0 1002 0 3 S 0 94.4 527
00:22:47 0 1002 0 2 SO 0 95 529
00:25:47 0 1002 0 2 S 0 95 532
00:28:47 0 1001 0 0 SO 0 95.3 521
00:31:47 0 1002 0 0 SO 0 95.4 524
00:34:45 0 1001 0 3 S 0 95.5 524
00:37:48 0 1002 0 4 SW 0 95.9 534
00:40:49 0 1002 0 1 SO 0 96.1 529
00:43:48 0 1002 0 1 SO 0 96.2 525
00:46:46 0 1002 0 1 SO 0 96.2 513
00:49:47 0 1002 0 2 SO 0 96.4 512
00:52:48 -1 1002 0 4 S 0 96.6 516
00:55:47 -1 1001 0 3 SO 0 96.6 513
00:58:45 -1 1001 0 0 S 0 96.6 515
01:01:45 -1 1002 0 1 0 96.6 524
01:04:46 -1 1001 0 1 S 0 96.6 527
01:07:48 -1 1002 0 1 S 0 96.6 526
01:10:46 -1 1001 0 0 S 0 96.6 524
01:13:50 -1 1001 0 1 S 0 96.6 513
01:16:45 -1 1001 0 0 S 0 96.6 515
01:19:48 -1 1001 0 2 SO 0 96.6 521
01:22:48 -1 1001 0 0 SO 0 96.6 512
01:25:48 -1 1001 0 1 S 0 96.6 512
01:28:48 -1 1000 0 0 SO 0 96.6 509
01:31:47 -1 1001 0 0 O 0 96.6 518
01:34:46 -1 1001 0 1 SO 0 96.6 521
01:37:46 -1 1001 0 1 SO 0 96.6 524
01:40:45 -1 1000 0 2 S 0 96.6 518
01:43:48 -1 1001 0 1 SO 0 96.6 512
01:46:47 -1 1001 0 1 SO 0 96.6 515
01:49:45 -1 1000 0 1 S 0 96.6 514
01:52:48 -1 1001 0 1 SO 0 96.6 509
01:55:47 -1 1000 0 0 SO 0 96.6 509
01:58:45 -1 1001 0 3 SO 0 96.6 515
02:01:45 -1 1001 0 2 S 0 96.6 524
02:04:46 -1 1000 0 2 S 0 96.6 521
02:07:49 -1 1001 0 0 NO 0 96.6 518
02:10:46 -1 1001 0 2 S 0 96.6 512
02:13:48 -1 1001 0 3 SO 0 96.6 517
02:16:45 -1 1000 0 2 W 0 96.6 515
02:19:47 -1 1001 0 2 S 0 96.6 521
02:22:48 -1 1000 0 0 SO 0 96.6 520
02:25:46 -1 1000 0 0 SO 0 96.6 517
02:28:48 -1 1001 0 3 SW 0 96.6 515
02:31:46 -1 999 0 1 SO 0 96.6 512
02:34:45 -1 1000 0 1 0 96.6 510
02:37:47 -1 1000 0 5 S 0 96.6 515
02:40:45 -1 1001 0 4 S 0 96.6 524
02:43:48 -1 1000 0 1 SO 0 96.6 527
02:46:47 -1 1000 0 5 SO 0 96.6 521
02:49:47 -1 1000 0 1 SW 0 96.6 515
02:52:48 -1 999 0 5 S 0 96.6 515
02:55:47 -1 999 0 2 S 0 96.6 510
02:58:45 -1 1000 0 3 S 0 96.6 521
03:01:48 -1 999 0 2 S 0 96.6 515
03:04:46 -1 999 0 3 S 0 96.6 515
03:07:46 -1 999 0 3 S 0 96.6 503
03:10:47 -1 999 0 1 SO 0 96.6 506
03:13:50 -1 1000 0 2 S 0 96.6 507
03:16:45 -1 999 0 3 S 0 96.6 501
03:19:47 -1 999 0 3 S 0 96.6 507
03:22:48 -1 999 0 9 SO 0 96.6 509
03:25:46 -1 999 0 5 S 0 96.6 509
03:28:46 0 999 0 3 SO 0 96.6 518
03:31:46 0 999 0 3 S 0 96.6 515
03:34:45 0 999 0 1 S 0 96.6 513
03:37:45 0 999 0 2 O 0 96.6 511
03:40:47 0 999 0 3 S 0 96.6 513
03:43:46 0 999 0 7 SO 0 96.6 513
03:46:47 0 998 0 2 S 0 96.6 507
03:49:48 0 998 0 2 SO 0 96.6 509
03:52:48 0 999 0 3 S 0 96.6 509
03:55:46 0 998 0 2 S 0 96.6 519
03:58:45 0 998 0 5 S 0 96.6 510
04:01:46 0 999 0 9 SW 0 96.6 513
04:04:46 0 999 0 6 S 0 96.6 513
04:07:45 0 998 0 7 S 0 96.6 507
04:10:48 0 998 0 2 SO 0 96.6 509
04:13:45 0 999 0 6 0 96.6 515
04:16:47 0 998 0 4 SW 0 96.6 524
04:19:49 0 999 0 2 S 0 96.6 521
04:22:47 0 998 0 7 S 0 96.6 513
04:25:47 0 998 0 3 SO 0 96.6 513
04:28:47 0 998 0 5 SO 0 96.6 510
04:31:45 0 998 0 7 S 0 96.6 515
04:34:49 0 998 0 3 SO 0 96.6 518
04:37:48 0 998 0 7 SO 0 96.6 513
04:40:46 0 998 0 4 SO 0 96.6 513
04:43:46 0 998 0 3 S 0 96.6 514
04:46:47 0 998 0 3 S 0 96.6 516
04:49:48 0 998 0 0 S 0 96.5 513
04:52:48 0 998 0 0 SO 0 96.5 510
04:55:45 0 998 0 3 S 0 96.6 515
04:58:46 0 998 0 2 SO 0 96.6 513
05:01:47 0 998 0 0 S 0 96.5 509
05:04:44 0 998 0 2 S 0 96.3 510
05:07:47 0 998 0 5 SO 0 96.3 509
05:10:46 0 998 0 2 S 0 96.2 509
05:13:47 1 998 0 4 S 0 96.1 510
05:16:47 1 998 0 5 SO 0 96.1 511
05:19:46 1 998 0 6 S 0 96 515
05:22:49 1 997 0 11 SO 0 95.8 510
05:25:47 1 998 0 0 SO 0 95.7 510
05:28:48 1 998 0 4 SW 0 95.7 503
05:31:46 1 998 0 4 S 0 95.7 504
05:34:47 1 997 0 5 S 0 95.5 500
05:37:47 1 998 0 1 SO 0 95.5 497
05:40:45 1 997 0 1 O 0 95.5 500
05:43:46 1 998 0 2 S 0 95.3 504
05:46:47 1 997 0 2 SO 0 95.2 497
05:49:46 1 997 0 1 S 0 94.9 506
05:52:48 1 997 0 1 SO 0 94.8 507
05:55:46 1 997 0 2 SO 0 94.8 512
05:58:46 1 997 0 4 SO 0 94.9 504
06:01:45 1 997 0 3 SO 0 95 503
06:04:46 1 997 0 4 SO 0 95 504
06:07:45 1 998 0 1 S 0 94.9 504
06:10:46 1 996 0 6 SW 0 94.9 502
06:13:47 1 997 0 2 SO 0 94.9 504
06:16:46 1 998 0 4 S 0 94.9 512
06:19:46 1 997 0 3 SO 0 94.8 507
06:22:47 1 996 0 1 S 0 94.8 503
06:25:48 1 997 0 2 SO 0 94.8 500
06:28:46 1 997 0 3 SO 0 94.7 504
06:31:48 1 997 0 1 SO 0 94.7 512
06:34:47 1 997 0 4 SO 0 94.7 506
06:37:47 1 996 0 2 SO 0 94.7 519
06:40:45 1 997 0 6 SO 0 94.7 512
06:43:49 1 998 0 5 SO 0 94.2 515
06:46:47 1 996 0 4 SO 0 94 509
06:49:47 1 996 0 5 S 0 93.8 512
06:52:45 1 996 0 3 SO 0 93.8 512
06:55:47 1 996 0 4 SO 0 93.3 507
06:58:45 1 996 0 2 S 0 93.2 506
07:01:44 1 996 0 0 O 0 93 509
07:04:48 1 996 0 1 SO 0 93.2 506
07:07:48 1 996 0 2 SO 0 93.2 512
07:10:46 1 996 0 3 SO 0 93.3 513
07:13:46 1 996 0 2 SO 0 93.3 510
07:16:46 1 996 0 1 SO 0 93.4 518
07:19:48 1 995 0 1 SO 0 93.5 519
07:22:46 1 996 0 2 S 0 93.6 509
07:25:44 1 996 0 0 SO 0 93.6 515
07:28:47 1 996 0 8 SO 0 93.2 519
07:31:47 1 996 0 4 SO 0 92.3 512
07:34:48 1 996 0 8 SW 0 91.2 492
07:37:45 1 996 0 4 S 0 90.4 488
07:40:47 2 995 0 3 O 0 89.1 519
07:43:46 2 996 0 2 SO 0 89 538
07:46:45 2 996 0 6 S 0 89.3 548
07:49:47 2 996 0 3 SW 0 87.8 547
07:52:45 2 995 0 4 SO 0 87.2 544
07:55:45 2 995 0 4 SW 0 86.6 550
07:58:46 2 996 3 4 SW 0 85.4 562
08:01:47 2 995 4 6 S 0 84.6 562
08:04:48 2 996 6 7 SO 0 84.5 560
08:07:48 2 995 8 5 SW 0 84.6 560
08:10:46 2 995 11 5 S 0 83.8 567
08:13:46 2 996 14 11 SO 0 83.8 570
08:16:48 2 996 18 4 S 0 84.1 566
08:19:48 2 996 23 4 SO 0 84.3 562
08:22:51 2 996 28 12 O 0 84.3 566
08:25:48 2 995 35 4 SW 0 84.4 569
08:28:48 2 995 42 4 SW 0 85.1 569
08:31:49 2 995 51 6 SW 0 85.8 574
08:34:47 2 996 53 5 S 0 87.1 573
08:37:47 2 995 58 6 SW 0 87.5 576
08:40:48 2 996 60 3 SW 0 88.5 591
08:43:50 2 996 71 8 SO 0 89.1 603
08:46:46 2 995 70 1 S 0 89.3 603
08:49:48 2 995 73 9 SO 0 89.7 594
08:52:48 2 995 72 1 SO 0 90 590
08:55:45 2 995 76 7 S 0 90.1 600
08:58:46 2 996 82 3 S 0 90.5 609
09:01:47 2 995 90 4 SW 0 91.1 615
09:04:47 2 995 103 6 SO 0 91.4 617
09:07:49 2 995 108 2 S 0 91.6 616
09:10:46 2 995 109 7 S 0 91.9 613
09:13:47 2 996 108 7 SW 0 91.9 612
09:16:46 2 996 106 9 SW 0 92.4 614
09:19:48 2 995 107 16 S 0 93.1 621
09:22:48 2 995 105 11 SW 0 93.9 627
09:25:48 1 996 105 5 S 0 94.6 626
09:28:48 2 995 105 7 SO 0 95.5 626
09:31:47 1 995 105 13 SW 0 96.6 631
09:34:46 1 996 121 6 S 0 96.6 633
09:37:47 1 995 129 3 SW 0 96.6 647
09:40:46 1 995 133 2 S 0.2575 96.6 645
09:43:49 1 995 142 2 S 0 96.6 652
09:46:50 1 995 142 7 SW 0 96.6 649
09:49:50 1 995 130 6 SO 0 96.6 656
09:52:49 1 995 136 7 SO 0 96.6 650
09:55:48 1 995 127 2 SO 0 96.6 647
09:58:48 1 995 130 4 S 0 96.6 644
10:01:47 1 995 126 9 0 96.6 648
10:04:48 1 995 140 5 SO 0 96.6 647
10:07:48 1 995 142 3 SO 0 96.6 645
10:10:47 1 995 135 4 W 0 96.6 649
10:13:46 1 995 121 3 S 0 96.6 655
10:16:48 1 995 130 5 SW 0 96.6 652
10:19:47 1 995 135 12 SO 0 96.6 664
10:22:49 1 995 133 11 NW 0 96.6 668
10:25:45 1 995 143 5 S 0 96.6 664
10:28:47 1 995 157 8 SO 0 96.6 667
10:31:49 1 995 166 6 S 0 96.6 665
10:34:46 1 995 164 8 SW 0.2575 96.6 657
10:37:47 1 995 164 4 S 0 96.6 662
10:40:47 1 995 165 6 S 0 96.6 665
10:43:48 1 995 167 5 SO 0 96.6 673
10:46:48 2 995 173 7 S 0 96.6 666
10:49:46 2 995 171 2 S 0 96.6 665
10:52:48 2 995 171 4 S 0 96.6 656
10:55:48 2 995 166 5 S 0 96.6 653
10:58:45 2 995 157 11 W 0 96.6 657
11:01:46 2 995 157 2 SW 0 96.6 668
11:04:47 2 995 156 2 SW 0 96.6 667
11:07:46 2 995 164 4 SO 0 96.6 668
11:10:56 2 995 168 6 NW 0 96.6 665
11:13:47 2 995 171 2 S 0 96.6 680
11:16:47 2 995 160 4 SW 0 96.6 687
11:19:50 2 995 154 4 NW 0 96.6 688
11:22:46 2 995 151 4 SW 0 96.6 679
11:25:50 2 995 140 5 SW 0 96.6 675
11:28:46 2 995 145 2 SO 0 96.6 668
11:31:46 2 995 146 2 S 0 96.6 670
11:34:46 2 995 158 3 O 0 96.6 664
11:37:46 2 995 144 3 SW 0 96.6 661
11:40:46 2 995 132 5 S 0 96.6 667
11:43:46 2 995 145 2 O 0 96.6 667
11:46:47 2 995 145 4 S 0 96.6 672
11:49:46 2 995 143 5 SW 0 96.6 675
11:52:46 2 995 147 8 SW 0 96.5 685
11:55:48 2 995 176 6 SO 0 96.4 687
11:58:49 2 995 187 6 SW 0 96.5 684
12:01:48 2 995 168 5 W 0 96.4 686
12:04:48 2 995 175 3 SW 0 96.2 686
12:07:48 2 995 176 2 SO 0 95.9 689
12:10:50 2 995 189 2 SW 0 96 697
12:13:48 2 995 186 6 SW 0 95.7 688
12:16:49 2 995 190 4 SO 0 95.6 686
12:19:49 2 995 169 5 SW 0 95.5 692
12:22:48 2 995 186 4 W 0 95 688
12:25:51 2 995 198 4 SW 0 95 688
12:28:46 3 995 205 4 SO 0 95.1 688
12:31:47 3 995 217 4 W 0 95.1 689
12:34:47 3 995 218 2 W 0 94.9 695
12:37:46 3 995 219 3 N 0 94.2 695
12:40:47 3 995 215 6 SW 0 94.3 701
12:43:49 3 994 198 2 O 0 93.1 701
12:46:47 3 995 193 4 S 0 92.8 696
12:49:46 3 995 186 3 S 0 92.5 701
12:52:50 3 995 189 4 SO 0 92.7 701
12:55:48 3 994 184 5 NW 0 92.9 709
12:58:49 3 995 179 4 SW 0 92.9 718
13:01:48 3 995 166 6 SO 0 93.2 715
13:04:46 3 995 168 5 NW 0 93.4 717
13:07:47 3 995 163 5 SO 0 93.5 717
13:10:47 3 995 157 4 W 0 93.8 723
13:13:46 3 995 148 5 SW 0 93.9 714
13:16:47 3 995 149 4 S 0 94.3 706
13:19:48 3 995 150 7 S 0 94.4 708
13:22:46 3 995 159 2 S 0 94.5 717
13:25:47 3 995 167 3 S 0 94.9 726
13:28:47 3 994 177 8 S 0 95 726
13:31:48 3 995 195 8 SO 0 95.1 726
13:34:47 3 995 181 3 S 0 95.2 729
13:37:48 3 995 186 5 SO 0 95.1 736
13:40:47 3 995 177 2 S 0 95.1 746
13:43:46 3 995 184 5 SW 0 95 744
13:46:47 3 995 173 4 W 0 94.8 741
13:49:48 3 994 171 6 SW 0 94.6 735
13:52:46 3 995 172 3 SO 0 94.4 741
13:55:47 3 995 181 7 SW 0 94.4 744
13:58:46 3 994 187 5 O 0 94.4 745
14:01:46 3 995 185 3 S 0 94.4 741
14:04:47 3 995 182 3 SW 0 94.5 727
14:07:50 3 994 179 3 SW 0 94 722
14:10:48 3 995 168 1 S 0 94 718
14:13:45 3 994 171 0 S 0 93.9 711
14:16:47 3 995 170 5 O 0 94 709
14:19:47 3 995 164 6 W 0 94 728
14:22:47 3 995 183 4 SW 0 94.2 738
14:25:48 3 995 190 4 SO 0 94 751
14:28:51 3 995 199 3 SW 0 94.1 758
14:31:49 3 995 194 5 SW 0 94.2 759
14:34:46 3 994 196 3 W 0 94 762
14:37:49 3 995 166 3 NW 0 93.3 754
14:40:48 3 995 156 2 S 0 93.2 748
14:43:46 3 995 123 2 S 0 93.2 754
14:46:46 3 994 148 3 S 0 93.3 760
14:49:45 3 995 120 8 S 0 93.2 764
14:52:44 3 995 106 3 S 0 93.4 767
14:55:46 3 994 106 5 S 0 93.2 761
14:58:47 3 995 96 1 S 0 93 742
15:01:45 3 995 87 1 SW 0 93.1 737
15:04:46 3 995 81 2 S 0 93.1 736
15:07:47 3 995 82 3 W 0 93.1 737
15:10:49 3 995 90 2 SW 0 93.4 748
15:13:47 3 995 97 6 S 0 93.4 757
15:16:47 3 995 85 4 SW 0 93.3 772
15:19:45 3 995 87 0 S 0 93.2 772
15:22:47 3 994 83 11 SW 0 93.4 769
15:25:47 3 995 85 2 SW 0 93.4 764
15:28:48 3 995 88 7 NO 0 93.4 767
15:31:47 3 994 88 8 O 0 93.3 770
15:34:47 3 995 82 7 S 0 93.3 773
15:37:46 3 994 86 4 S 0 93.3 767
15:40:49 3 995 88 2 SW 0 93.2 770
15:43:48 3 995 88 2 SW 0 93.3 773
15:46:46 3 995 87 4 SO 0 93.2 776
15:49:48 3 995 77 6 SW 0 92.7 774
15:52:45 3 995 68 3 S 0 92.3 761
15:55:48 3 995 69 8 SW 0 92.2 760
15:58:47 3 994 69 3 SW 0 92.2 762
16:01:49 3 995 62 7 SW 0 92.2 771
16:04:45 3 995 50 8 S 0 92.1 775
16:07:48 3 995 48 1 S 0 92.1 776
16:10:48 3 995 44 3 SW 0 92.1 767
16:13:48 3 995 41 11 NW 0 92 784
16:16:46 3 995 36 1 S 0 92.1 782
16:19:47 3 995 35 4 NO 0 92.4 782
16:22:46 3 995 25 3 S 0 92.4 767
16:25:50 3 995 25 6 W 0 92.6 770
16:28:50 3 995 23 8 SO 0 92.8 776
16:31:49 3 995 16 2 S 0 92.8 782
16:34:49 3 995 12 5 S 0 92.4 782
16:37:44 3 995 9 2 S 0 92.4 781
16:40:49 3 995 6 4 NW 0 92.4 785
16:43:49 3 995 4 3 NW 0 92.4 787
16:46:45 3 995 3 2 N 0 92.2 787
16:49:47 3 995 0 3 SW 0 92.2 788
16:52:49 3 995 0 5 SW 0 92.1 793
16:55:46 3 995 0 2 SW 0 92.1 796
16:58:47 3 995 0 1 SW 0 92.1 790
17:01:44 3 995 0 3 S 0 92.2 783
17:04:47 3 995 0 6 SW 0 91.8 784
17:07:46 3 995 0 10 S 0 91.4 783
17:10:47 3 995 0 5 S 0 91.6 787
17:13:44 3 995 0 4 SO 0 91.4 787
17:16:48 3 995 0 5 SO 0 90.9 782
17:19:46 3 995 0 7 S 0 90.9 780
17:22:46 3 995 0 3 S 0 91.1 786
17:25:44 3 995 0 7 S 0 91 779
17:28:48 3 995 0 8 SO 0 90.8 779
17:31:44 3 995 0 3 S 0 90.8 773
17:34:47 3 994 0 4 SW 0 90.8 775
17:37:47 3 995 0 6 S 0 90.5 771
17:40:48 3 995 0 10 SO 0 90.4 784
17:43:46 3 995 0 11 SO 0 90.4 782
17:46:46 3 994 0 6 W 0 90.1 782
17:49:45 3 994 0 4 S 0 90.1 776
17:52:47 3 995 0 4 SW 0 90.2 780
17:55:46 3 995 0 5 SW 0 90.2 782
17:58:47 3 994 0 8 S 0 90.3 761
18:01:49 3 994 0 2 SO 0 90.4 788
18:04:45 3 995 0 1 SW 0 90.5 779
18:07:46 3 995 0 4 S 0 90.6 787
18:10:46 3 995 0 1 S 0 90.5 788
18:13:48 3 995 0 2 SO 0 90.5 785
18:16:47 3 994 0 4 SW 0 90.6 780
18:19:47 3 994 0 3 S 0 90.6 785
18:22:47 3 995 0 4 SO 0 90.8 780
18:25:46 3 994 0 0 SO 0 91.1 784
18:28:47 3 994 0 3 SO 0 91.3 774
18:31:45 3 994 0 6 S 0 91.6 765
18:34:47 2 994 0 4 SW 0 92 731
18:37:46 2 994 0 5 S 0 92.3 703
18:40:46 2 994 0 3 S 0 92.4 710
18:43:49 2 993 0 3 SO 0 92.5 724
18:46:47 2 994 0 5 S 0 92.6 711
18:49:49 2 994 0 3 SW 0 92.7 685
18:52:47 2 993 0 3 S 0 92.9 665
18:55:45 2 994 0 6 SO 0 93.1 690
18:58:46 2 994 0 3 S 0 93.3 692
19:01:46 2 994 0 6 SW 0 93.5 694
19:04:48 2 994 0 4 SW 0 93.7 699
19:07:48 2 994 0 2 S 0 93.7 688
19:10:46 2 994 0 5 SO 0 93.7 688
19:13:45 2 993 0 9 S 0 93.6 694
19:16:47 2 994 0 8 SO 0 93.6 706
19:19:49 2 994 0 3 SO 0 93.4 705
19:22:47 2 994 0 2 NO 0 93.3 694
19:25:47 2 994 0 4 S 0 93.3 689
19:28:46 2 994 0 3 O 0 93.3 685
19:31:46 2 994 0 0 S 0 93.5 679
19:34:50 2 994 0 6 SO 0 93.7 676
19:37:45 2 994 0 1 S 0 93.8 668
19:40:46 2 994 0 4 S 0 94 664
19:43:46 2 994 0 1 O 0 94.3 659
19:46:44 2 994 0 3 S 0 94.5 655
19:49:47 2 994 0 1 SO 0 94.8 656
19:52:46 2 994 0 4 S 0 95.1 650
19:55:46 2 994 0 2 SO 0 95.5 635
19:58:44 2 994 0 4 S 0 95.9 622
20:01:44 2 994 0 6 S 0 95.7 613
20:04:48 2 993 0 3 SW 0 95.3 624
20:07:46 2 994 0 10 O 0 95 610
20:10:49 2 994 0 6 SW 0 94.4 558
20:13:47 2 995 0 2 S 0 93.9 407
20:16:46 2 994 0 4 S 0 93.7 407
20:19:45 2 994 0 5 S 0 93.2 407
20:22:47 2 994 0 10 S 0 92.9 410
20:25:47 2 994 0 3 SW 0 92.8 404
20:28:45 3 994 0 7 S 0 92.8 405
20:31:48 3 994 0 10 S 0 92.7 404
20:34:46 3 994 0 5 SO 0 92.6 419
20:37:45 3 993 0 4 O 0 92.4 431
20:40:45 3 994 0 5 NO 0 92.3 433
20:43:49 3 994 0 6 SO 0 92.3 431
20:46:45 3 994 0 5 S 0 92.2 433
20:49:45 3 994 0 5 S 0 92 436
20:52:44 3 994 0 5 S 0 92 445
20:55:49 3 994 0 4 SW 0 92 446
20:58:46 2 994 0 4 SW 0 92.3 448
21:01:46 2 994 0 5 S 0 92.5 442
21:04:46 2 994 0 5 S 0 92.6 439
21:07:46 2 994 0 4 SO 0 92.8 442
21:10:47 2 994 0 3 SO 0 92.9 453
21:13:47 2 994 0 1 SW 0 93 454
21:16:44 2 994 0 1 S 0 93.1 456
21:19:45 2 994 0 6 S 0 93.5 456
21:22:48 2 994 0 3 SO 0 93.8 459
21:25:46 2 994 0 5 S 0 94.1 462
21:28:46 2 994 0 2 SO 0 94.6 460
21:31:48 2 994 0 5 SO 0 95.1 465
21:34:46 2 993 0 3 S 0 95.3 467
21:37:48 2 994 0 3 NW 0 95.6 478
21:40:48 2 994 0 12 SW 0 96 477
21:43:46 2 994 0 7 S 0 96.1 480
21:46:45 2 994 0 7 S 0 96.2 483
21:49:47 2 994 0 13 S 0 96.1 491
21:52:46 2 993 0 7 SW 0 96.2 494
21:55:46 2 993 0 7 SO 0 96.6 495
21:58:47 2 993 0 7 S 0 96.6 492
22:01:48 2 993 0 4 S 0 96.6 498
22:04:48 2 993 0 4 N 0.2575 96.6 505
22:07:46 2 994 0 4 SO 0 96.6 504
22:10:45 2 993 0 3 S 0 96.6 509
22:13:45 2 994 0 3 S 0 96.6 506
22:16:45 2 993 0 5 S 0 96.6 500
22:19:47 2 993 0 3 S 0 96.6 509
22:22:48 2 994 0 3 SW 0 96.6 518
22:25:48 2 993 0 2 SW 0 96.6 524
22:28:47 2 993 0 3 SO 0 96.6 526
22:31:48 2 993 0 9 S 0 96.6 530
22:34:48 2 994 0 3 S 0 96.6 533
22:37:46 2 994 0 2 S 0 96.6 532
22:40:47 2 994 0 3 SW 0 96.6 530
22:43:46 2 993 0 14 S 0 96.6 533
22:46:47 2 993 0 6 SW 0 96.6 538
22:49:47 2 993 0 6 SW 0 96.6 503
22:52:48 2 993 0 15 S 0.2575 96.6 506
22:55:45 2 993 0 3 S 0 96.6 507
22:58:46 2 993 0 3 S 0 96.6 501
23:01:47 2 994 0 4 SO 0 96.6 495
23:04:46 2 993 0 8 SW 0 96.6 504
23:07:48 2 994 0 2 SW 0 96.6 514
23:10:46 2 994 0 4 S 0 96.6 495
23:13:44 2 993 0 4 S 0 96.6 457
23:16:46 2 993 0 2 S 0 96.6 451
23:19:48 2 994 0 2 S 0 96.6 480
23:22:46 2 994 0 3 SW 0 96.6 495
23:25:46 2 993 0 2 W 0.2575 96.6 505
23:28:48 2 993 0 4 SW 0 96.6 501
23:31:47 2 993 0 2 NO 0.2575 96.6 504
23:34:47 1 993 0 2 S 0 96.6 504
23:37:46 1 993 0 1 S 0 96.6 504
23:40:48 1 993 0 7 SW 0 96.6 506
23:43:46 1 994 0 1 SO 0.2575 96.6 504
23:46:46 1 993 0 2 SW 0 96.6 504
23:49:46 1 993 0 3 S 0 96.6 506
23:52:49 1 994 0 9 SO 0 96.6 513
23:55:47 1 994 0 3 0 96.6 517
23:58:46 1 993 0 5 W 0 96.6 516

Letzte Änderung : 22-Jul-2022
Copyright Jens Köhler, Wolfsburg, Obere Dorfstraße 10d